EW8436 Weather Reports


Display with metric or nautical units.
time (UTC)temp
F
wind
direction
speed
MPH
gust
MPH
rain 1hr
in
rain 24hr
in
rain mn
in
humidity
%
barometer
mb
20260507044535 43 0 0.0 0.0 0.00 0.41 0.00 89 1014.4
20260507043048 42 0 0.0 1.0 0.00 0.41 0.00 89 1014.5
20260507041533 42 0 0.0 1.0 0.00 0.41 0.00 88 1014.4
20260507040035 43 0 0.0 0.0 0.00 0.41 0.00 88 1014.4
20260507034536 43 0 0.0 0.0 0.00 0.42 0.41 87 1014.4
20260507033039 44 0 0.0 0.0 0.00 0.42 0.41 86 1014.5
20260507031534 44 0 0.0 0.0 0.00 0.42 0.41 86 1014.7
20260507030033 44 0 0.0 0.0 0.00 0.42 0.41 85 1014.7
20260507024535 45 0 0.0 0.0 0.00 0.49 0.41 85 1014.6
20260507023035 45 0 0.0 0.0 0.00 0.49 0.41 83 1014.7
20260507021537 45 0 0.0 0.0 0.00 0.49 0.41 81 1014.6
20260507020046 46 0 0.0 0.0 0.00 0.49 0.41 79 1014.5
20260507014536 47 0 0.0 0.0 0.00 0.57 0.41 76 1014.3
20260507013035 48 0 0.0 1.0 0.00 0.57 0.41 74 1013.9
20260507011544 49 0 0.0 0.0 0.00 0.57 0.41 73 1014.0
20260507010037 49 0 0.0 0.0 0.00 0.57 0.41 71 1014.0
20260507004535 51 0 0.0 0.0 0.00 0.60 0.41 69 1013.9
20260507003039 52 0 0.0 2.0 0.00 0.60 0.41 64 1013.6
20260507001604 53 0 0.0 2.0 0.00 0.60 0.41 62 1013.5
20260507000041 53 294 1.0 4.0 0.00 0.60 0.41 61 1013.2
20260506234535 54 336 1.0 4.0 0.00 0.60 0.41 59 1013.1
20260506233034 54 338 1.0 5.0 0.00 0.60 0.41 58 1013.1
20260506231542 55 0 0.0 6.0 0.00 0.60 0.41 59 1013.2
20260506230050 55 0 1.0 4.0 0.00 0.60 0.41 59 1013.2
20260506224536 55 360 0.0 4.0 0.00 0.62 0.41 57 1013.3
20260506223034 55 321 1.0 6.0 0.00 0.62 0.41 57 1013.5
20260506221532 55 338 1.0 4.0 0.00 0.62 0.41 57 1013.7
20260506220035 56 344 1.0 6.0 0.00 0.62 0.41 58 1013.6
20260506214537 56 319 1.0 8.0 0.00 0.65 0.41 59 1013.4
20260506213036 56 298 1.0 5.0 0.00 0.65 0.41 59 1013.0
20260506211533 57 346 1.0 8.0 0.00 0.65 0.41 58 1012.9
20260506210049 57 347 1.0 7.0 0.00 0.65 0.41 59 1012.7
20260506204532 57 0 1.0 5.0 0.00 0.86 0.41 58 1012.8
20260506203036 57 360 2.0 8.0 0.00 0.86 0.41 57 1012.8
20260506201533 57 324 1.0 4.0 0.00 0.86 0.41 58 1012.7
20260506200036 58 350 0.0 6.0 0.00 0.86 0.41 55 1012.7
20260506194532 58 29 1.0 7.0 0.00 0.86 0.41 55 1012.6
20260506193037 58 360 2.0 9.0 0.00 0.86 0.41 53 1012.4
20260506191538 59 315 1.0 4.0 0.00 0.86 0.41 56 1012.6
20260506190035 59 360 2.0 10.0 0.00 0.86 0.41 55 1012.4
20260506184537 59 67 1.0 4.0 0.00 0.86 0.41 55 1012.2
20260506183036 59 306 1.0 9.0 0.00 0.86 0.41 56 1012.4
20260506181540 58 5 1.0 10.0 0.00 0.86 0.41 58 1012.3
20260506180040 58 11 1.0 10.0 0.00 0.86 0.41 60 1012.6
20260506174539 58 342 1.0 4.0 0.00 0.86 0.41 61 1013.0
20260506173041 57 279 1.0 8.0 0.00 0.86 0.41 59 1012.8
20260506171535 57 41 1.0 7.0 0.00 0.86 0.41 57 1012.9
20260506170043 57 345 1.0 8.0 0.00 0.86 0.41 58 1013.0
20260506164545 57 360 1.0 10.0 0.00 0.86 0.41 63 1013.2
20260506163042 56 10 1.0 5.0 0.00 0.86 0.41 64 1012.9
20260506161538 55 314 1.0 4.0 0.00 0.86 0.41 70 1012.8
20260506160037 55 311 2.0 8.0 0.00 0.86 0.41 68 1013.1
20260506154539 54 342 1.0 5.0 0.00 0.86 0.41 71 1013.1
20260506153032 54 34 1.0 8.0 0.00 0.86 0.41 69 1012.8
20260506151536 53 41 1.0 9.0 0.00 0.86 0.41 74 1012.4
20260506150032 52 360 2.0 9.0 0.00 0.86 0.41 75 1012.0
20260506144538 51 0 1.0 7.0 0.00 0.86 0.41 80 1011.9
20260506143039 50 360 2.0 6.0 0.00 0.86 0.41 81 1012.0
20260506141541 49 360 1.0 5.0 0.00 0.86 0.41 83 1011.8
20260506140034 48 333 1.0 8.0 0.00 0.86 0.41 83 1011.8
20260506134538 48 5 1.0 4.0 0.00 0.86 0.41 85 1011.7
20260506133048 47 0 0.0 2.0 0.00 0.86 0.41 86 1011.4
20260506131536 47 355 2.0 11.0 0.00 0.86 0.41 88 1011.1
20260506130035 46 13 1.0 5.0 0.00 0.86 0.41 89 1011.0
20260506124534 46 0 0.0 2.0 0.00 0.86 0.41 91 1011.1
20260506123040 46 0 1.0 8.0 0.00 0.86 0.41 92 1010.9
20260506121540 45 0 0.0 1.0 0.00 0.86 0.41 93 1010.6
20260506120050 45 0 0.0 1.0 0.00 0.86 0.41 93 1010.0
20260506114534 44 0 0.0 3.0 0.00 0.87 0.41 93 1009.6
20260506113033 44 0 0.0 2.0 0.00 0.87 0.41 93 1009.7
20260506111545 44 315 1.0 8.0 0.00 0.87 0.41 93 1009.4
20260506110038 44 329 1.0 5.0 0.00 0.87 0.41 93 1009.3
20260506104545 44 341 1.0 5.0 0.00 0.87 0.41 94 1009.0
20260506103043 44 360 1.0 8.0 0.00 0.87 0.41 94 1008.2
20260506101536 44 5 0.0 5.0 0.01 0.87 0.41 94 1008.0
20260506100032 44 0 1.0 5.0 0.01 0.87 0.41 94 1008.0
20260506094534 44 10 1.0 7.0 0.01 0.87 0.41 94 1008.0
20260506093034 44 346 0.0 10.0 0.01 0.87 0.41 94 1007.8
20260506091537 44 0 0.0 9.0 0.00 0.86 0.40 94 1007.6
20260506090037 45 28 1.0 8.0 0.02 0.86 0.40 94 1007.9
20260506084608 45 360 2.0 8.0 0.03 0.86 0.40 94 1007.7
20260506083037 45 0 0.0 10.0 0.05 0.86 0.40 94 1007.7
20260506081547 45 0 2.0 12.0 0.07 0.86 0.40 94 1007.3
20260506073035 46 346 1.0 9.0 0.06 0.81 0.35 94 1007.2
20260506071535 46 0 2.0 9.0 0.06 0.79 0.33 94 1007.0
20260506061536 49 5 1.0 11.0 0.14 0.73 0.27 94 1007.1